User: anonymous   Login
Location: Cluny
(50.9333°N, 112.8167°W)
Time: 18:08:16
(UTC-06:00)
Language:

Hamsat - Orbit

View from above orbital plane
View from above orbital plane
View from above satellite
View from above satellite

Ground track
Ground track

The orbit data is extracted from the following two-line orbital elements,

1 28650U 05017B   15091.85861043  .00004075  00000-0  45804-3 0  9995
2 28650 097.5714 087.8097 0022588 285.4989 074.3733 14.87059722536102
Epoch (UTC): 01 April 2015 20:36:23
Eccentricity: 0.0022588
inclination: 97.5714°
perigee height: 591 km
apogee height: 623 km
right ascension of ascending node: 87.8097°
argument of perigee: 285.4989°
revolutions per day: 14.87059722
mean anomaly at epoch: 74.3733°
orbit number at epoch: 53610

The dashed part of the orbit path shows where the satellite is in the earth's shadow,  

DLR